Simultaneous Nadir Overpasses (SNOs) Predictions

Prediction of SNOs between GOES-15 and LANDSAT-8 Satellite Orbit:

Table of predicted SNOs for the next 14.0 days since TLE Epoch: 8/13/2022
Index Date Time (GOES-15) GOES-15 Lat,Lon LANDSAT-8 Lat,Lon Distance(km) Time Diff (sec)
1 08/13/2022 06:46:24 0.14,-128.03 -0.01,-128.75 82.15 80
2 08/15/2022 06:36:53 0.14,-128.03 0.60,-125.79 254.61 80
3 08/15/2022 18:55:30 -0.17,-128.10 0.41,-130.97 324.80 80
4 08/17/2022 18:45:59 -0.17,-128.11 -0.21,-128.01 12.11 80
5 08/19/2022 18:33:48 -0.16,-128.11 -0.84,-125.05 348.25 80
6 08/20/2022 06:52:32 0.19,-128.04 -0.28,-130.24 249.91 80
7 08/22/2022 06:43:01 0.18,-128.03 0.36,-127.28 85.52 80
8 08/22/2022 19:01:37 -0.21,-128.08 0.71,-132.44 495.68 80
9 08/24/2022 06:30:49 0.18,-128.02 0.94,-124.31 420.47 80
10 08/24/2022 18:49:26 -0.21,-128.07 0.07,-129.49 160.64 80
11 08/26/2022 18:39:54 -0.21,-128.05 -0.52,-126.52 174.01 80
